ETH819 HAAB-FQMA

Flight info

Callsign ETH819
Flight time N/A
Altitude 32000
Route SHALA2A SHALA UM308 RUDOL/N0478F330 UM308 LOTAS/N0481F320 UM441 APGEP/N0475F340 UM441 LOSIN UM315 DVL UG656 TMA48/N0469F360 UG656 EGPON EGPON1B
Aircraft B738/M-SDE2E3FGHIRWXY/LB1

Departure

Time 2026-04-29 05:59
Airport Addis Ababa Bole International Airport (HAAB)

Arrival

Time N/A
Airport Maputo Airport (FQMA)
Time Latitude Longitude Altitude Speed Heading
2026-04-29 04:49 8.98159 38.79414 7617 ft 0 kts 343°
2026-04-29 05:41 8.98147 38.79417 7617 ft 4 kts 343°
2026-04-29 05:42 8.98130 38.79422 7617 ft 4 kts 343°
2026-04-29 05:42 8.98105 38.79431 7617 ft 4 kts 323°
2026-04-29 05:42 8.98091 38.79450 7617 ft 4 kts 275°
2026-04-29 05:42 8.98092 38.79464 7617 ft 0 kts 253°
2026-04-29 05:46 8.98088 38.79451 7617 ft 3 kts 253°
2026-04-29 05:46 8.98083 38.79434 7617 ft 2 kts 253°
2026-04-29 05:47 8.98078 38.79418 7617 ft 2 kts 252°
2026-04-29 05:47 8.98073 38.79402 7617 ft 2 kts 252°
2026-04-29 05:47 8.98067 38.79386 7617 ft 2 kts 252°
2026-04-29 05:47 8.98063 38.79371 7618 ft 2 kts 251°
2026-04-29 05:48 8.98058 38.79356 7618 ft 2 kts 253°
2026-04-29 05:48 8.98053 38.79341 7618 ft 2 kts 252°
2026-04-29 05:48 8.98048 38.79323 7618 ft 4 kts 254°
2026-04-29 05:48 8.98036 38.79281 7618 ft 5 kts 253°
2026-04-29 05:49 8.98025 38.79246 7618 ft 5 kts 252°
2026-04-29 05:49 8.98014 38.79209 7619 ft 6 kts 252°
2026-04-29 05:49 8.98002 38.79172 7619 ft 6 kts 254°
2026-04-29 05:49 8.97992 38.79135 7619 ft 5 kts 253°
2026-04-29 05:50 8.97980 38.79098 7619 ft 5 kts 252°
2026-04-29 05:50 8.97969 38.79062 7619 ft 6 kts 252°
2026-04-29 05:50 8.97958 38.79024 7620 ft 6 kts 256°
2026-04-29 05:50 8.97948 38.78985 7621 ft 6 kts 255°
2026-04-29 05:51 8.97937 38.78948 7620 ft 6 kts 252°
2026-04-29 05:51 8.97925 38.78910 7620 ft 6 kts 252°
2026-04-29 05:51 8.97912 38.78868 7621 ft 6 kts 252°
2026-04-29 05:51 8.97900 38.78826 7621 ft 6 kts 255°
2026-04-29 05:52 8.97896 38.78812 7621 ft 0 kts 253°
2026-04-29 05:52 8.97894 38.78808 7621 ft 0 kts 253°
2026-04-29 05:52 8.97894 38.78806 7621 ft 1 kts 253°
2026-04-29 05:52 8.97892 38.78801 7621 ft 1 kts 253°
2026-04-29 05:53 8.97890 38.78793 7624 ft 1 kts 253°
2026-04-29 05:53 8.97886 38.78779 7621 ft 4 kts 252°
2026-04-29 05:53 8.97858 38.78746 7621 ft 7 kts 199°
2026-04-29 05:53 8.97810 38.78751 7622 ft 7 kts 172°
2026-04-29 05:54 8.97763 38.78761 7622 ft 7 kts 163°
2026-04-29 05:54 8.97718 38.78774 7622 ft 7 kts 163°
2026-04-29 05:54 8.97674 38.78788 7622 ft 7 kts 163°
2026-04-29 05:54 8.97631 38.78801 7622 ft 6 kts 163°
2026-04-29 05:55 8.97589 38.78809 7622 ft 6 kts 190°
2026-04-29 05:55 8.97558 38.78780 7623 ft 6 kts 239°
2026-04-29 05:55 8.97544 38.78740 7625 ft 6 kts 253°
2026-04-29 05:55 8.97532 38.78700 7623 ft 6 kts 253°
2026-04-29 05:56 8.97520 38.78659 7623 ft 7 kts 253°
2026-04-29 05:56 8.97502 38.78598 7623 ft 11 kts 253°
2026-04-29 05:56 8.97477 38.78511 7624 ft 13 kts 253°
2026-04-29 05:56 8.97451 38.78423 7625 ft 13 kts 253°
2026-04-29 05:57 8.97425 38.78337 7625 ft 13 kts 253°
2026-04-29 05:57 8.97378 38.78275 7625 ft 12 kts 177°
2026-04-29 05:57 8.97312 38.78326 7624 ft 12 kts 140°
2026-04-29 05:57 8.97251 38.78380 7624 ft 9 kts 138°
2026-04-29 05:58 8.97246 38.78410 7624 ft 0 kts 73°
2026-04-29 05:58 8.97260 38.78455 7627 ft 30 kts 72°
2026-04-29 05:58 8.97385 38.78868 7622 ft 92 kts 73°
2026-04-29 05:59 8.97619 38.79671 7614 ft 145 kts 73°
2026-04-29 05:59 8.97954 38.80802 7606 ft 189 kts 74°
2026-04-29 05:59 8.98325 38.82161 7950 ft 204 kts 75°
2026-04-29 05:59 8.98703 38.83571 8506 ft 213 kts 75°
2026-04-29 06:00 8.99094 38.85071 8965 ft 227 kts 76°
2026-04-29 06:00 8.99510 38.86668 9334 ft 242 kts 76°
2026-04-29 06:00 8.99934 38.88363 9706 ft 253 kts 76°
2026-04-29 06:00 9.00367 38.90095 10170 ft 262 kts 76°
2026-04-29 06:01 9.00823 38.91910 10618 ft 271 kts 78°
2026-04-29 06:01 9.00763 38.93824 11024 ft 278 kts 111°
2026-04-29 06:01 8.99691 38.95452 11494 ft 284 kts 140°
2026-04-29 06:01 8.97965 38.96443 11941 ft 291 kts 165°
2026-04-29 06:02 8.95942 38.96617 12386 ft 298 kts 189°
2026-04-29 06:02 8.93973 38.95921 12840 ft 305 kts 210°
2026-04-29 06:02 8.92195 38.94723 13279 ft 307 kts 217°
2026-04-29 06:02 8.90523 38.93378 13695 ft 307 kts 219°
2026-04-29 06:03 8.88876 38.91998 14119 ft 309 kts 220°
2026-04-29 06:03 8.87215 38.90607 14517 ft 311 kts 219°
2026-04-29 06:03 8.85488 38.89176 14636 ft 330 kts 219°
2026-04-29 06:03 8.83682 38.87693 14784 ft 348 kts 219°
2026-04-29 06:04 8.81746 38.86115 14922 ft 366 kts 219°
2026-04-29 06:04 8.79726 38.84477 15174 ft 378 kts 219°
2026-04-29 06:04 8.77656 38.82803 15663 ft 382 kts 219°
2026-04-29 06:04 8.75575 38.81122 16247 ft 384 kts 218°
2026-04-29 06:05 8.73480 38.79432 16799 ft 387 kts 218°
2026-04-29 06:05 8.71370 38.77730 17306 ft 390 kts 218°
2026-04-29 06:05 8.69238 38.76010 17806 ft 393 kts 218°
2026-04-29 06:05 8.67089 38.74277 18306 ft 396 kts 218°
2026-04-29 06:06 8.64927 38.72534 18797 ft 399 kts 218°
2026-04-29 06:06 8.62739 38.70793 19270 ft 402 kts 215°
2026-04-29 06:06 8.60366 38.69342 19709 ft 405 kts 206°
2026-04-29 06:06 8.57738 38.68303 20166 ft 407 kts 197°
2026-04-29 06:07 8.55012 38.67480 20619 ft 410 kts 197°
2026-04-29 06:07 8.52263 38.66678 21033 ft 413 kts 196°
2026-04-29 06:07 8.49488 38.65882 21440 ft 416 kts 196°
2026-04-29 06:07 8.46685 38.65078 21849 ft 418 kts 196°
2026-04-29 06:08 8.43877 38.64270 22244 ft 421 kts 196°
2026-04-29 06:08 8.41050 38.63453 22629 ft 423 kts 196°
2026-04-29 06:08 8.38210 38.62629 23003 ft 426 kts 196°
2026-04-29 06:08 8.35390 38.61808 23362 ft 428 kts 196°
2026-04-29 06:09 8.32518 38.60971 23714 ft 430 kts 196°
2026-04-29 06:09 8.29631 38.60129 24058 ft 433 kts 196°
2026-04-29 06:09 8.26733 38.59284 24394 ft 435 kts 196°
2026-04-29 06:09 8.23822 38.58435 24723 ft 437 kts 196°
2026-04-29 06:10 8.20892 38.57581 25044 ft 439 kts 196°
2026-04-29 06:10 8.17950 38.56723 25344 ft 441 kts 196°
2026-04-29 06:10 8.14983 38.55858 25658 ft 443 kts 196°
2026-04-29 06:10 8.12016 38.54994 25951 ft 445 kts 196°
2026-04-29 06:11 8.09021 38.54121 26239 ft 447 kts 196°
2026-04-29 06:11 8.06020 38.53247 26518 ft 449 kts 196°
2026-04-29 06:11 8.03010 38.52371 26787 ft 451 kts 196°
2026-04-29 06:11 7.99983 38.51489 27049 ft 453 kts 196°
2026-04-29 06:12 7.96984 38.50616 27301 ft 455 kts 196°
2026-04-29 06:12 7.93930 38.49727 27550 ft 457 kts 196°
2026-04-29 06:12 7.90866 38.48835 27787 ft 458 kts 196°
2026-04-29 06:12 7.87793 38.47941 28026 ft 460 kts 196°
2026-04-29 06:13 7.84706 38.47043 28251 ft 462 kts 196°
2026-04-29 06:13 7.81607 38.46141 28475 ft 463 kts 196°
2026-04-29 06:13 7.78536 38.45248 28690 ft 465 kts 196°
2026-04-29 06:13 7.75419 38.44341 28910 ft 466 kts 196°
2026-04-29 06:14 7.72309 38.43437 29194 ft 466 kts 196°
2026-04-29 06:14 7.69199 38.42533 29536 ft 464 kts 196°
2026-04-29 06:14 7.66099 38.41632 29859 ft 463 kts 196°
2026-04-29 06:14 7.63009 38.40733 30135 ft 463 kts 196°
2026-04-29 06:15 7.59914 38.39834 30398 ft 463 kts 196°
2026-04-29 06:15 7.56825 38.38936 30682 ft 462 kts 196°
2026-04-29 06:15 7.53738 38.38039 30970 ft 461 kts 196°
2026-04-29 06:15 7.50655 38.37143 31232 ft 460 kts 196°
2026-04-29 06:16 7.47572 38.36249 31477 ft 460 kts 196°
2026-04-29 06:16 7.44490 38.35385 31729 ft 460 kts 195°
2026-04-29 06:16 7.41442 38.34556 31980 ft 459 kts 195°
2026-04-29 06:16 7.38341 38.33722 32228 ft 459 kts 195°
2026-04-29 06:17 7.35261 38.32895 32455 ft 458 kts 195°
2026-04-29 06:17 7.32178 38.32064 32686 ft 458 kts 195°
2026-04-29 06:17 7.29101 38.31232 32919 ft 457 kts 195°
2026-04-29 06:17 7.26026 38.30399 33134 ft 457 kts 195°
2026-04-29 06:18 7.22959 38.29565 33344 ft 456 kts 195°
2026-04-29 06:18 7.19932 38.28743 33554 ft 456 kts 195°
2026-04-29 06:18 7.16867 38.27909 33757 ft 455 kts 195°
2026-04-29 06:18 7.13805 38.27077 33954 ft 455 kts 195°
2026-04-29 06:19 7.07650 38.25404 33998 ft 458 kts 195°
2026-04-29 06:19 7.01511 38.23737 33997 ft 455 kts 195°
2026-04-29 06:20 6.95447 38.22090 34000 ft 452 kts 195°
2026-04-29 06:20 6.89385 38.20444 33998 ft 450 kts 195°
2026-04-29 06:21 6.83332 38.18801 34001 ft 449 kts 195°
2026-04-29 06:21 6.77331 38.17172 34004 ft 449 kts 195°
2026-04-29 06:22 6.71275 38.15530 34002 ft 451 kts 195°
2026-04-29 06:22 6.65199 38.13881 34006 ft 453 kts 195°
2026-04-29 06:23 6.59107 38.12229 34005 ft 454 kts 195°
2026-04-29 06:23 6.53022 38.10580 34004 ft 456 kts 195°
2026-04-29 06:24 6.46875 38.08907 34003 ft 458 kts 195°
2026-04-29 06:24 6.40718 38.07228 34000 ft 459 kts 195°
2026-04-29 06:25 6.34550 38.05546 34000 ft 459 kts 195°
2026-04-29 06:25 6.28379 38.03864 33995 ft 459 kts 195°
2026-04-29 06:26 6.22254 38.02195 34002 ft 458 kts 195°
2026-04-29 06:26 6.16103 38.00520 33999 ft 457 kts 195°
2026-04-29 06:27 6.09964 37.98848 34001 ft 456 kts 195°
2026-04-29 06:27 6.03830 37.97178 34002 ft 455 kts 195°
2026-04-29 06:28 5.97703 37.95511 34000 ft 455 kts 195°
2026-04-29 06:28 5.91641 37.93861 34000 ft 454 kts 195°
2026-04-29 06:29 5.85540 37.92201 33999 ft 453 kts 195°
2026-04-29 06:29 5.80477 37.90824 34002 ft 453 kts 195°
2026-04-29 06:30 5.71341 37.88340 34003 ft 453 kts 195°
2026-04-29 06:31 5.65280 37.86692 34001 ft 453 kts 195°
2026-04-29 06:31 5.59174 37.85032 34004 ft 454 kts 195°
2026-04-29 06:32 5.53068 37.83373 34000 ft 454 kts 195°
2026-04-29 06:32 5.46951 37.81711 34000 ft 455 kts 195°
2026-04-29 06:33 5.40855 37.80055 34003 ft 456 kts 195°